Voltar ao catálogo

COSMOS 480

AtivoMilitarPO
NORAD 5905·PAYLOAD·🇷🇺 Russia

Lançado Mar 25, 1972 de Plesetsk Cosmodrome

Loading…

Próximas Passagens (próximas 24 horas)

TLE

AtualizadoSource: Space-Track

Época: Sep 14, 2026, 21:57 UTC

1 05905U 72019A   26257.91526547  .00000011  00000-0 -44946-5 0  9994
2 05905  82.9720 234.0202 0018791 165.6052 222.1909 13.19939734623941

Acompanhe COSMOS 480 em tempo real com AllMySat

Download on the App Store